Weather Roundup
Issued by NWS

Home | Current Version | Previous Version | Graphics & Text | Print | Product List | Glossary Off
Versions: 1 2 3 4 5 6 7 8 9 10 11 12 13 14 15 16 17 18 19 20 21 22 23 24 25 26 27 28 29 30 31 32 33 34 35 36 37 38 39 40 41 42 43 44 45 46 47 48 49 50

000
NZUS93 KARX 240010
HRRWXR

CURRENT HOURLY OBSERVATIONS ACROSS
MUCH OF THE UPPER MISSISSIPPI VALLEY
NATIONAL WEATHER SERVICE LA CROSSE WI
700 PM CDT WED APR 23 2014


...SOUTHEAST MINNESOTA...


CITY           SKY/WX    TMP DP  RH WIND       PRES   REMARKS
ROCHESTER      CLOUDY    45  31  58 SE17      29.94S
ROCHESTER/MAYO CLOUDY    46  29  51 E8        29.94F
WINONA         DRIZZLE   43  37  81 E12       29.98F
AUSTIN         CLOUDY    45  36  70 SE15G21   29.91F
ALBERT LEA     CLOUDY    45  37  76 SE16G22   29.87F
DODGE CENTER   CLOUDY    46  34  61 SE17      29.92F
PRESTON        LGT RAIN  45  35  66 SE9       29.96S
OWATONNA       CLOUDY    45  36  70 SE15      29.90F
FARIBAULT      CLOUDY    45  34  65 E8        29.91F
$$

...ELSEWHERE IN MINNESOTA...


CITY           SKY/WX    TMP DP  RH WIND       PRES   REMARKS
MINNEAPOLIS    CLOUDY    42  38  85 SE14      29.94F
INTNL FALLS    CLOUDY    52  24  33 SE10      29.94F
DULUTH         CLOUDY    42  23  46 E13       29.99F
RED WING       CLOUDY    43  37  81 E6        29.97R
REDWOOD FALLS  CLOUDY    45  36  70 SE20G26   29.83R
MANKATO        CLOUDY    45  34  65 SE25G32   29.86F
WORTHINGTON    PTSUNNY   48  34  57 SE26G33   29.76F
FAIRMONT       CLOUDY    45  36  70 SE28G36   29.82F
$$

...SOUTHWEST WISCONSIN...


CITY           SKY/WX    TMP DP  RH WIND       PRES   REMARKS
LA CROSSE      CLOUDY    46  36  68 E9        29.98F
PRAIRIE DU CHI LGT RAIN  51  31  46 E13G18    29.97F
BOSCOBEL       CLOUDY    54  25  32 E12G17    30.00F
LONE ROCK      CLOUDY    52  30  43 E13       30.03F
PLATTEVILLE    CLOUDY    50  32  48 E14       30.00F
FORT MC COY    DRIZZLE   42  38  86 SE9       30.02F
CAMP DOUGLAS   LGT RAIN  45  41  87 S9        30.05S
VIROQUA        CLOUDY    44  34  67 E17G23    29.98F
WIS DELLS      LGT RAIN  46  36  68 S7        30.07F
$$

...ELSEWHERE IN WISCONSIN...


CITY           SKY/WX    TMP DP  RH WIND       PRES   REMARKS
MILWAUKEE      CLOUDY    40  20  44 NE6       30.14S
MADISON        LGT RAIN  50  32  50 SE9G20    30.08S
GREEN BAY      CLOUDY    45  13  27 SE7       30.13S
EAU CLAIRE     LGT RAIN  43  38  82 SE8       29.99F
BLACK RVR FLS  RAIN      43  38  85 SE7       30.01F
MEDFORD        CLOUDY    46  24  41 SE8       30.03F
WAUSAU         CLOUDY    48  23  37 SE9       30.05F
WIS RAPIDS     CLOUDY    49  24  37 E12       30.06F
MARSHFIELD     CLOUDY    48  25  40 SE13      30.03F
RICE LAKE      CLOUDY    49  25  39 SE8       30.00F
$$

...NORTHEAST IOWA...


CITY           SKY/WX    TMP DP  RH WIND       PRES   REMARKS
WATERLOO       CLOUDY    45  39  79 SE20      29.92F
DUBUQUE        LGT RAIN  47  35  63 SE8       29.99F
DECORAH        DRIZZLE   45  36  70 S6G13     29.97R
MASON CITY     CLOUDY    44  37  76 SE24G33   29.88F
CHARLES CITY   CLOUDY    43  37  81 SE20      29.92F
OELWEIN        CLOUDY   N/A N/A N/A SE16      29.96F
$$

...ELSEWHERE IN IOWA...


CITY           SKY/WX    TMP DP  RH WIND       PRES   REMARKS
DES MOINES     CLOUDY    49  40  71 SE13G22   29.84F
IOWA CITY      LGT RAIN  47  42  83 SE13      29.98F
FORT DODGE     CLOUDY    46  37  71 SE21G31   29.82R
MARSHALLTOWN   LGT RAIN  45  40  82 E22G31    29.87F
CEDAR RAPIDS   CLOUDY    46  40  79 SE13G23   29.94F
$$

...NORTHERN ILLINOIS...


CITY           SKY/WX    TMP DP  RH WIND       PRES   REMARKS
CHICAGO-OHARE  CLOUDY    44  20  38 E8        30.11F
DUPAGE         CLOUDY    47  24  40 E8        30.10F
CHICAGO-MIDWAY CLOUDY    45  24  43 E10       30.11F
MOLINE         LGT RAIN  48  41  76 SE8       30.01S
ROCKFORD       CLOUDY    52  25  35 SE10      30.09F
STERLING       CLOUDY    54  34  47 E16       30.02F
PEORIA         CLOUDY    55  37  50 E8        30.03F
$$

NOTE: "FAIR" INDICATES FEW OR NO CLOUDS BELOW 12,000 FEET WITH NO
SIGNIFICANT WEATHER AND/OR OBSTRUCTIONS TO VISIBILITY. WIND
SPEEDS ARE IN MILES-PER-HOUR.



USA.gov is the U.S. government's official web portal to all federal, state and local government web resources and services.